Hourly Weather Otrada

Today, 28 July, Wednesday

Time Temperature Precipitation Wind Pressure Humidity
00:00 +19°C° 0.2 mm 2 mps 741 mmHg 85%
01:00 +18°C° 0.2 mm 2 mps 741 mmHg 89%
02:00 +18°C° 0 mm 2 mps 741 mmHg 94%
03:00 +18°C° 1.4 mm 3 mps 740 mmHg 96%
04:00 +18°C° 1.4 mm 3 mps 740 mmHg 97%
05:00 +17°C° 1.4 mm 3 mps 739 mmHg 98%
06:00 +17°C° 1.8 mm 3 mps 739 mmHg 98%
07:00 +17°C° 1.8 mm 4 mps 739 mmHg 98%
08:00 +18°C° 0 mm 4 mps 739 mmHg 97%
09:00 +19°C° 0.3 mm 4 mps 738 mmHg 95%
10:00 +19°C° 0.3 mm 3 mps 738 mmHg 93%
11:00 +20°C° 0.3 mm 3 mps 738 mmHg 92%
12:00 +21°C° 0.8 mm 3 mps 738 mmHg 90%
13:00 +21°C° 0.8 mm 3 mps 738 mmHg 89%
14:00 +22°C° 0 mm 3 mps 737 mmHg 86%
15:00 +22°C° 0.6 mm 3 mps 737 mmHg 86%
16:00 +22°C° 0.6 mm 3 mps 737 mmHg 87%
17:00 +22°C° 0.6 mm 3 mps 737 mmHg 87%
18:00 +21°C° 0.1 mm 2 mps 737 mmHg 89%
19:00 +21°C° 0.1 mm 1 mps 737 mmHg 91%
20:00 +20°C° 0.1 mm 1 mps 737 mmHg 93%
21:00 +20°C° 0 mm 1 mps 737 mmHg 93%
22:00 +19°C° 0 mm 1 mps 737 mmHg 93%
23:00 +19°C° 0 mm 1 mps 737 mmHg 94%

Tomorrow, 29 July, Thursday

Time Temperature Precipitation Wind Pressure Humidity
00:00 +19°C° 0 mm 1 mps 737 mmHg 94%
01:00 +18°C° 0 mm 1 mps 737 mmHg 95%
02:00 +17°C° 0 mm 2 mps 737 mmHg 95%
03:00 +17°C° 0.1 mm 2 mps 736 mmHg 95%
04:00 +17°C° 0.1 mm 2 mps 736 mmHg 95%
05:00 +18°C° 0.1 mm 1 mps 736 mmHg 94%
06:00 +19°C° 0 mm 2 mps 736 mmHg 89%
07:00 +21°C° 0 mm 2 mps 736 mmHg 83%
08:00 +23°C° 0 mm 2 mps 736 mmHg 77%
09:00 +25°C° 0 mm 2 mps 736 mmHg 68%
10:00 +26°C° 0 mm 3 mps 736 mmHg 59%
11:00 +28°C° 0 mm 3 mps 736 mmHg 51%
12:00 +29°C° 0 mm 3 mps 736 mmHg 48%
13:00 +29°C° 0 mm 3 mps 736 mmHg 45%
14:00 +30°C° 0 mm 3 mps 736 mmHg 42%
15:00 +29°C° 0.1 mm 3 mps 735 mmHg 48%
16:00 +28°C° 0.1 mm 3 mps 735 mmHg 54%
17:00 +27°C° 0.1 mm 3 mps 734 mmHg 59%
18:00 +25°C° 3.4 mm 3 mps 734 mmHg 72%
19:00 +21°C° 3.4 mm 2 mps 735 mmHg 84%
20:00 +19°C° 3.4 mm 1 mps 735 mmHg 97%
21:00 +19°C° 0.1 mm 1 mps 735 mmHg 97%
22:00 +19°C° 0.1 mm 1 mps 735 mmHg 97%
23:00 +18°C° 0.1 mm 2 mps 735 mmHg 97%

Day after tomorrow, 30 July, Friday

Time Temperature Precipitation Wind Pressure Humidity
00:00 +17°C° 0 mm 2 mps 735 mmHg 97%
01:00 +17°C° 0 mm 2 mps 735 mmHg 97%
02:00 +17°C° 0 mm 2 mps 735 mmHg 98%
03:00 +17°C° 0 mm 2 mps 735 mmHg 98%
04:00 +17°C° 0 mm 2 mps 735 mmHg 97%
05:00 +16°C° 0 mm 2 mps 735 mmHg 97%
06:00 +18°C° 0 mm 2 mps 735 mmHg 92%
07:00 +19°C° 0 mm 2 mps 735 mmHg 86%
08:00 +20°C° 0 mm 3 mps 735 mmHg 80%
09:00 +22°C° 0 mm 3 mps 735 mmHg 71%
10:00 +23°C° 0 mm 4 mps 736 mmHg 61%
11:00 +26°C° 0 mm 4 mps 736 mmHg 51%
12:00 +25°C° 0 mm 4 mps 735 mmHg 51%
13:00 +25°C° 0 mm 4 mps 735 mmHg 50%
14:00 +25°C° 0 mm 4 mps 735 mmHg 50%
15:00 +25°C° 0 mm 4 mps 735 mmHg 52%
16:00 +23°C° 0 mm 4 mps 735 mmHg 53%
17:00 +23°C° 0 mm 4 mps 735 mmHg 54%
18:00 +22°C° 0 mm 3 mps 735 mmHg 58%
19:00 +20°C° 0 mm 3 mps 735 mmHg 62%
20:00 +19°C° 0 mm 3 mps 735 mmHg 65%
21:00 +19°C° 0 mm 3 mps 735 mmHg 64%
22:00 +19°C° 0 mm 3 mps 735 mmHg 62%
23:00 +19°C° 0 mm 3 mps 735 mmHg 60%

31 July, Saturday

Time Temperature Precipitation Wind Pressure Humidity
00:00 +18°C° 0 mm 3 mps 735 mmHg 63%
01:00 +18°C° 0 mm 3 mps 735 mmHg 65%
02:00 +17°C° 0 mm 3 mps 735 mmHg 67%
03:00 +17°C° 0 mm 3 mps 735 mmHg 70%
04:00 +16°C° 0 mm 3 mps 735 mmHg 72%
05:00 +16°C° 0 mm 3 mps 735 mmHg 75%
06:00 +17°C° 0 mm 4 mps 735 mmHg 68%
07:00 +19°C° 0 mm 4 mps 735 mmHg 62%
08:00 +21°C° 0 mm 5 mps 735 mmHg 55%
09:00 +22°C° 0 mm 5 mps 735 mmHg 50%
10:00 +23°C° 0 mm 6 mps 735 mmHg 46%
11:00 +24°C° 0 mm 6 mps 736 mmHg 41%
12:00 +26°C° 0 mm 6 mps 736 mmHg 39%
13:00 +26°C° 0 mm 6 mps 736 mmHg 38%
14:00 +27°C° 0 mm 5 mps 736 mmHg 37%
15:00 +27°C° 0 mm 5 mps 736 mmHg 40%
16:00 +26°C° 0 mm 4 mps 736 mmHg 43%
17:00 +26°C° 0 mm 3 mps 736 mmHg 47%
18:00 +24°C° 0 mm 3 mps 736 mmHg 53%
19:00 +21°C° 0 mm 2 mps 736 mmHg 60%
20:00 +20°C° 0 mm 1 mps 736 mmHg 66%
21:00 +20°C° 0 mm 1 mps 736 mmHg 67%
22:00 +19°C° 0 mm 2 mps 736 mmHg 68%
23:00 +19°C° 0 mm 2 mps 736 mmHg 69%

1 August, Sunday

Time Temperature Precipitation Wind Pressure Humidity
00:00 +18°C° 0.2 mm 2 mps 736 mmHg 74%
01:00 +18°C° 0.2 mm 3 mps 735 mmHg 79%
02:00 +18°C° 0.2 mm 3 mps 735 mmHg 84%
03:00 +18°C° 0.9 mm 3 mps 735 mmHg 89%
04:00 +18°C° 0.9 mm 3 mps 735 mmHg 93%
05:00 +18°C° 0.9 mm 3 mps 735 mmHg 98%
06:00 +19°C° 0.1 mm 3 mps 735 mmHg 95%
07:00 +19°C° 0.1 mm 3 mps 735 mmHg 92%
08:00 +20°C° 0.1 mm 3 mps 735 mmHg 90%
09:00 +21°C° 0.1 mm 4 mps 735 mmHg 82%
10:00 +22°C° 0.1 mm 4 mps 736 mmHg 74%
11:00 +25°C° 0.1 mm 4 mps 736 mmHg 66%
12:00 +26°C° 0.1 mm 5 mps 736 mmHg 57%
13:00 +27°C° 0.1 mm 5 mps 736 mmHg 48%
14:00 +28°C° 0.1 mm 5 mps 736 mmHg 39%
15:00 +28°C° 0 mm 5 mps 736 mmHg 41%
16:00 +28°C° 0 mm 4 mps 736 mmHg 43%
17:00 +27°C° 0 mm 4 mps 736 mmHg 45%
18:00 +25°C° 0 mm 3 mps 736 mmHg 51%
19:00 +22°C° 0 mm 3 mps 736 mmHg 58%
20:00 +20°C° 0 mm 2 mps 736 mmHg 65%
21:00 +19°C° 0 mm 2 mps 736 mmHg 66%
22:00 +18°C° 0 mm 2 mps 736 mmHg 68%
23:00 +19°C° 0 mm 1 mps 736 mmHg 69%

2 August, Monday

Time Temperature Precipitation Wind Pressure Humidity
00:00 +18°C° 0 mm 1 mps 736 mmHg 72%
01:00 +16°C° 0 mm 1 mps 736 mmHg 75%
02:00 +15°C° 0 mm 0 mps 736 mmHg 78%
03:00 +15°C° 0 mm 0 mps 736 mmHg 76%
04:00 +18°C° 0 mm 1 mps 736 mmHg 74%
05:00 +18°C° 0 mm 1 mps 735 mmHg 73%
06:00 +18°C° 0 mm 2 mps 735 mmHg 69%
07:00 +20°C° 0 mm 2 mps 735 mmHg 64%
08:00 +21°C° 0 mm 3 mps 735 mmHg 60%
09:00 +22°C° 0 mm 3 mps 734 mmHg 60%
10:00 +24°C° 0 mm 3 mps 734 mmHg 61%
11:00 +23°C° 0 mm 4 mps 733 mmHg 61%
12:00 +22°C° 0.4 mm 3 mps 733 mmHg 70%
13:00 +21°C° 0.4 mm 3 mps 732 mmHg 79%
14:00 +20°C° 0.4 mm 3 mps 732 mmHg 88%
15:00 +21°C° 0.6 mm 4 mps 731 mmHg 87%
16:00 +21°C° 0.6 mm 4 mps 730 mmHg 87%
17:00 +22°C° 0.6 mm 5 mps 730 mmHg 86%
18:00 +21°C° 0.4 mm 5 mps 730 mmHg 88%
19:00 +20°C° 0.4 mm 5 mps 730 mmHg 91%
20:00 +17°C° 0.4 mm 5 mps 730 mmHg 93%
21:00 +16°C° 0 mm 5 mps 731 mmHg 93%
22:00 +15°C° 0 mm 5 mps 732 mmHg 92%
23:00 +13°C° 0 mm 6 mps 732 mmHg 92%
Show more